Location: Fort Wayne
(41.1310°N, 85.1290°W)
Time: 16:41:03
(UTC-04:00)

Tiros 1 despin weight - Visible Passes

Search period start: 28 May 2016 00:00
Search period end: 07 June 2016 00:00
Orbit: 595 x 645 km, 48.2° (Epoch: 28 May)

Date Brightness Start Highest point End Pass type
(mag) Time Alt. Az. Time Alt. Az. Time Alt. Az.
28 May ? 01:02:15 19° ENE 01:02:15 19° ENE 01:03:39 10° ENE visible
28 May ? 02:39:18 33° WNW 02:40:50 46° NNW 02:45:18 10° ENE visible
28 May ? 04:18:54 10° WNW 04:23:10 34° N 04:27:22 10° ENE visible
29 May ? 01:17:49 44° NE 01:17:49 44° NE 01:21:02 10° ENE visible
29 May ? 02:54:50 14° WNW 02:58:23 37° N 03:02:42 10° ENE visible
29 May ? 04:36:24 10° WNW 04:40:46 38° NNE 04:45:04 10° E visible
29 May ? 23:56:01 13° ENE 23:56:01 13° ENE 23:56:34 10° ENE visible
30 May ? 01:33:01 49° NW 01:33:44 55° NNW 01:38:19 10° ENE visible
30 May ? 03:11:44 10° WNW 03:16:00 34° N 03:20:13 10° ENE visible
30 May ? 04:53:46 10° WNW 04:58:18 50° NNE 05:02:45 10° E visible
31 May ? 00:10:17 55° E 00:10:17 55° E 00:14:02 10° ENE visible
31 May ? 01:47:09 12° W 01:51:15 41° NNW 01:55:40 10° ENE visible
31 May ? 03:29:19 10° WNW 03:33:37 35° N 03:37:53 10° ENE visible
31 May ? 05:11:05 10° WNW 05:15:44 76° NNE 05:20:17 10° ESE visible
31 May ? 22:41:10 10° SSW 22:45:15 30° SE 22:49:22 10° ENE visible
01 Jun ? 00:21:58 10° WSW 00:26:40 68° NNW 00:31:21 10° ENE visible
01 Jun ? 02:04:31 10° WNW 02:08:50 35° N 02:13:07 10° ENE visible
01 Jun ? 03:46:44 10° WNW 03:51:12 43° NNE 03:55:36 10° E visible
01 Jun ? 05:28:26 10° WNW 05:33:02 65° SSW 05:37:31 10° SE visible
01 Jun ? 22:57:47 10° SW 23:02:22 55° SE 23:06:59 10° ENE visible
02 Jun ? 00:39:34 10° W 00:44:07 47° NNW 00:48:39 10° ENE visible
02 Jun ? 02:22:10 10° WNW 02:26:28 34° N 02:30:42 10° ENE visible
02 Jun ? 04:04:04 10° WNW 04:08:41 60° NNE 04:13:14 10° ESE visible
02 Jun ? 23:14:55 10° WSW 23:19:38 86° NNW 23:24:21 10° ENE visible
03 Jun ? 00:57:17 10° WNW 01:01:41 37° N 01:06:02 10° ENE visible
03 Jun ? 02:39:40 10° WNW 02:44:04 38° N 02:48:24 10° E visible
03 Jun ? 04:21:22 10° WNW 04:26:04 87° SSW 04:30:38 10° ESE visible
03 Jun ? 21:51:04 10° SSW 21:55:27 40° SE 21:59:51 10° ENE visible
03 Jun ? 23:32:23 10° W 23:37:01 56° NNW 23:41:39 10° ENE visible
04 Jun ? 01:14:58 10° WNW 01:19:17 34° N 01:23:33 10° ENE visible
04 Jun ? 02:57:02 10° WNW 03:01:36 49° NNE 03:06:06 10° E visible
04 Jun ? 04:38:47 10° WNW 04:43:17 49° SW 04:47:41 10° SE visible
04 Jun ? 22:07:57 10° SW 22:12:38 73° SSE 22:17:20 10° ENE visible
04 Jun ? 23:50:03 10° W 23:54:31 41° NNW 23:59:00 10° ENE visible
05 Jun ? 01:32:34 10° WNW 01:36:54 35° N 01:41:13 10° ENE visible
05 Jun ? 03:14:21 10° WNW 03:19:03 74° NNE 03:23:39 10° ESE visible
05 Jun ? 04:56:30 10° W 05:00:21 26° SW 05:04:10 10° SSE visible
05 Jun ? 22:25:15 10° WSW 22:29:57 70° NNW 22:34:40 10° ENE visible
06 Jun ? 00:07:46 10° WNW 00:12:07 35° N 00:16:27 10° ENE visible
06 Jun ? 01:50:00 10° WNW 01:54:29 42° NNE 01:58:56 10° E visible
06 Jun ? 03:31:41 10° WNW 03:36:20 68° SSW 03:40:55 10° SE visible
06 Jun ? 05:15:03 10° WSW 05:17:17 13° SW 05:19:30 10° SSW visible
06 Jun ? 22:42:50 10° W 22:47:24 48° NNW 22:51:58 10° ENE visible
